Regional Weather Roundup
Issued by NWS

Home | Current Version | Previous Version | Text Only | Print | Product List | Glossary On
Versions: 1 2 3 4 5 6 7 8 9 10 11 12 13 14 15 16 17 18 19 20 21 22 23 24 25 26 27 28 29 30 31 32 33 34 35 36 37 38 39 40 41 42 43 44 45 46 47 48 49 50
000
ASUS45 KBOI 260910
RWRID
WEATHER ROUNDUP FOR IDAHO
NATIONAL WEATHER SERVICE BOISE ID
300 AM MDT SUN APR 26 2015

NOTE: "FAIR" INDICATES FEW OR NO CLOUDS BELOW 12000 FEET
WITH NO SIGNIFICANT WEATHER AND/OR OBSTRUCTIONS TO VISIBILITY

IDZ012-014-261000-
SOUTHWEST IDAHO


CITY           SKY/WX    TMP DP  RH WIND       PRES   REMARKS
BOISE          CLEAR     39  30  70 NW10      29.94S WCI  32
CALDWELL       CLEAR     39  23  52 W13       29.98R WCI  32
MOUNTAIN HOME  CLEAR     39  27  62 NW15      29.92R WCI  31
$$

IDZ016-017-261000-
SOUTHCENTRAL IDAHO


CITY           SKY/WX    TMP DP  RH WIND       PRES   REMARKS
BURLEY         CLOUDY    38  29  70 W18G24    29.84R WCI  28
JEROME         PTCLDY    36  28  73 SW20G26   29.87R WCI  25
TWIN FALLS     PTCLDY    37  27  67 SW18      29.88R WCI  27
$$

IDZ019>023-261000-
SOUTHEAST IDAHO


CITY           SKY/WX    TMP DP  RH WIND       PRES   REMARKS
IDAHO FALLS    LGT RAIN  42  36  79 S17       29.77S
POCATELLO      CLOUDY    39  35  86 SW24      29.82R WCI  28
REXBURG        LGT RAIN  39  36  89 S12       29.77R WCI  32
$$

IDZ006-010-011-018-031-032-261000-
CENTRAL IDAHO MOUNTAINS


CITY           SKY/WX    TMP DP  RH WIND       PRES   REMARKS
MCCALL         PTCLDY    33  24  69 NW12      29.91S WCI  24
HAILEY         MOCLDY    36  32  87 NW8       29.82S WCI  29
STANLEY          N/A     31  24  75 NW3       29.86R
SALMON         CLOUDY    37  36  93 SW3       29.85S
CHALLIS        LGT RAIN  36  34  92 CALM      29.84S
$$

IDZ002-004-006-007-026-261000-
NORTHERN IDAHO


CITY           SKY/WX    TMP DP  RH WIND       PRES   REMARKS
LEWISTON       CLEAR     40  33  76 S5        30.02R
LOWELL           N/A     44  42  93 CALM      30.03R
COEUR D`ALENE  PTCLDY    34  30  86 NE5       30.02S WCI  30
MULLAN PASS    CLOUDY    27  26  96 NW5       29.92S WCI  22
$$


USA.gov is the U.S. government's official web portal to all federal, state and local government web resources and services.